Time,TemperatureF,DewpointF,PressureIn,WindDirection,WindDirectionDegrees,WindSpeedMPH,WindSpeedGustMPH,Humidity,HourlyPrecipIn,Conditions,Clouds,dailyrainin,SoftwareType,DateUTC
2013-04-26 00:01:00,44.5,31.1,30.30,WNW,300,9.0,9.0,59,0.00,,,0.00,Wunderground v.1.15,2013-04-26 04:01:00,
2013-04-26 00:03:00,44.3,31.3,30.30,WNW,294,9.0,9.0,60,0.00,,,0.00,Wunderground v.1.15,2013-04-26 04:03:00,
2013-04-26 00:05:00,44.2,31.6,30.30,NW,305,8.0,9.0,61,0.00,,,0.00,Wunderground v.1.15,2013-04-26 04:05:00,
2013-04-26 00:09:00,44.0,32.2,30.30,WNW,295,7.0,11.0,63,0.00,,,0.00,Wunderground v.1.15,2013-04-26 04:09:00,
2013-04-26 00:15:00,43.7,32.7,30.31,West,280,7.0,11.0,65,0.00,,,0.00,Wunderground v.1.15,2013-04-26 04:15:00,
2013-04-26 00:20:00,43.6,33.0,30.31,WNW,291,7.0,9.0,66,0.00,,,0.00,Wunderground v.1.15,2013-04-26 04:20:00,
2013-04-26 00:26:00,43.4,33.5,30.31,WNW,291,6.0,9.0,68,0.00,,,0.00,Wunderground v.1.15,2013-04-26 04:26:00,
2013-04-26 00:31:00,43.2,34.4,30.31,NW,305,5.0,6.0,71,0.00,,,0.00,Wunderground v.1.15,2013-04-26 04:31:00,
2013-04-26 00:37:00,42.8,34.7,30.31,WNW,282,4.0,6.0,73,0.00,,,0.00,Wunderground v.1.15,2013-04-26 04:37:00,
2013-04-26 00:42:00,42.4,35.0,30.31,NNW,348,4.0,5.0,75,0.00,,,0.00,Wunderground v.1.15,2013-04-26 04:42:00,
2013-04-26 00:48:00,42.2,35.5,30.31,WNW,289,4.0,6.0,77,0.00,,,0.00,Wunderground v.1.15,2013-04-26 04:48:00,
2013-04-26 00:53:00,42.0,36.0,30.31,WNW,287,6.0,8.0,79,0.00,,,0.00,Wunderground v.1.15,2013-04-26 04:53:00,
2013-04-26 00:59:00,41.8,36.4,30.31,WNW,288,7.0,10.0,81,0.00,,,0.00,Wunderground v.1.15,2013-04-26 04:59:00,
2013-04-26 01:04:00,41.7,36.9,30.32,WNW,294,7.0,9.0,83,0.00,,,0.01,Wunderground v.1.15,2013-04-26 05:04:00,
2013-04-26 01:09:00,41.5,36.7,30.32,West,281,6.0,9.0,83,0.00,,,0.01,Wunderground v.1.15,2013-04-26 05:09:00,
2013-04-26 01:15:00,41.4,37.2,30.32,WNW,284,5.0,7.0,85,0.00,,,0.01,Wunderground v.1.15,2013-04-26 05:15:00,
2013-04-26 01:21:00,41.2,37.3,30.32,WNW,298,6.0,6.0,86,0.00,,,0.01,Wunderground v.1.15,2013-04-26 05:21:00,
2013-04-26 01:27:00,41.0,37.4,30.32,WNW,285,6.0,6.0,87,0.00,,,0.02,Wunderground v.1.15,2013-04-26 05:27:00,
2013-04-26 01:32:00,40.9,37.6,30.32,WNW,298,4.0,5.0,88,0.00,,,0.02,Wunderground v.1.15,2013-04-26 05:32:00,
2013-04-26 01:38:00,40.8,37.8,30.32,WNW,284,3.0,5.0,89,0.07,,,0.03,Wunderground v.1.15,2013-04-26 05:38:00,
2013-04-26 01:43:00,40.8,37.8,30.32,SW,236,1.0,2.0,89,0.08,,,0.04,Wunderground v.1.15,2013-04-26 05:43:00,
2013-04-26 01:49:00,40.7,38.0,30.32,West,273,0.0,2.0,90,0.08,,,0.04,Wunderground v.1.15,2013-04-26 05:49:00,
2013-04-26 01:54:00,40.7,38.0,30.31,West,270,0.0,1.0,90,0.05,,,0.04,Wunderground v.1.15,2013-04-26 05:54:00,
2013-04-26 02:00:00,40.7,38.0,30.31,ESE,122,0.0,0.0,90,0.00,,,0.04,Wunderground v.1.15,2013-04-26 06:00:00,
2013-04-26 02:06:00,40.7,38.0,30.31,ESE,117,0.0,2.0,90,0.00,,,0.04,Wunderground v.1.15,2013-04-26 06:06:00,
2013-04-26 02:12:00,40.7,38.3,30.31,SE,125,0.0,1.0,91,0.00,,,0.04,Wunderground v.1.15,2013-04-26 06:12:00,
2013-04-26 02:17:00,40.7,38.3,30.31,SE,130,0.0,1.0,91,0.00,,,0.04,Wunderground v.1.15,2013-04-26 06:17:00,
2013-04-26 02:23:00,40.7,38.3,30.31,SE,126,0.0,1.0,91,0.00,,,0.05,Wunderground v.1.15,2013-04-26 06:23:00,
2013-04-26 02:28:00,40.7,38.3,30.31,SE,132,0.0,1.0,91,0.00,,,0.05,Wunderground v.1.15,2013-04-26 06:28:00,
2013-04-26 02:34:00,40.8,38.4,30.31,SE,142,0.0,1.0,91,0.00,,,0.05,Wunderground v.1.15,2013-04-26 06:34:00,
2013-04-26 02:39:00,40.8,38.4,30.31,SSW,204,0.0,1.0,91,0.00,,,0.05,Wunderground v.1.15,2013-04-26 06:39:00,
2013-04-26 02:44:00,40.8,38.4,30.31,SW,226,1.0,1.0,91,0.00,,,0.05,Wunderground v.1.15,2013-04-26 06:44:00,
2013-04-26 02:50:00,40.8,38.4,30.32,SE,132,1.0,2.0,91,0.00,,,0.05,Wunderground v.1.15,2013-04-26 06:50:00,
2013-04-26 02:56:00,40.8,38.7,30.31,South,175,1.0,2.0,92,0.00,,,0.05,Wunderground v.1.15,2013-04-26 06:56:00,
2013-04-26 03:02:00,40.8,38.7,30.32,WSW,252,0.0,1.0,92,0.00,,,0.05,Wunderground v.1.15,2013-04-26 07:02:00,
2013-04-26 03:08:00,40.8,38.4,30.32,WSW,249,0.0,2.0,91,0.00,,,0.05,Wunderground v.1.15,2013-04-26 07:08:00,
2013-04-26 03:14:00,40.8,38.4,30.32,West,264,0.0,1.0,91,0.00,,,0.05,Wunderground v.1.15,2013-04-26 07:14:00,
2013-04-26 03:20:00,40.9,38.5,30.32,ESE,121,0.0,0.0,91,0.00,,,0.05,Wunderground v.1.15,2013-04-26 07:20:00,
2013-04-26 03:26:00,40.8,38.4,30.32,SW,235,1.0,3.0,91,0.00,,,0.05,Wunderground v.1.15,2013-04-26 07:26:00,
2013-04-26 03:31:00,40.9,38.5,30.33,WNW,296,1.0,1.0,91,0.00,,,0.05,Wunderground v.1.15,2013-04-26 07:31:00,
2013-04-26 03:37:00,41.1,38.7,30.33,West,266,2.0,3.0,91,0.00,,,0.05,Wunderground v.1.15,2013-04-26 07:37:00,
2013-04-26 03:42:00,41.1,38.7,30.33,West,268,2.0,3.0,91,0.00,,,0.05,Wunderground v.1.15,2013-04-26 07:42:00,
2013-04-26 03:48:00,41.0,38.6,30.33,WSW,256,3.0,4.0,91,0.00,,,0.05,Wunderground v.1.15,2013-04-26 07:48:00,
2013-04-26 03:53:00,41.0,38.3,30.34,WNW,284,3.0,7.0,90,0.00,,,0.05,Wunderground v.1.15,2013-04-26 07:53:00,
2013-04-26 03:59:00,41.0,38.3,30.34,WNW,298,3.0,7.0,90,0.00,,,0.05,Wunderground v.1.15,2013-04-26 07:59:00,
2013-04-26 04:04:00,40.9,38.2,30.34,WNW,296,5.0,7.0,90,0.00,,,0.05,Wunderground v.1.15,2013-04-26 08:04:00,
2013-04-26 04:10:00,40.9,38.2,30.35,West,278,7.0,7.0,90,0.00,,,0.05,Wunderground v.1.15,2013-04-26 08:10:00,
2013-04-26 04:15:00,40.8,38.1,30.35,WNW,293,8.0,12.0,90,0.00,,,0.05,Wunderground v.1.15,2013-04-26 08:15:00,
2013-04-26 04:21:00,40.8,37.8,30.35,WNW,289,8.0,8.0,89,0.00,,,0.05,Wunderground v.1.15,2013-04-26 08:21:00,
2013-04-26 04:26:00,40.8,37.5,30.35,WNW,293,8.0,10.0,88,0.00,,,0.05,Wunderground v.1.15,2013-04-26 08:26:00,
2013-04-26 04:32:00,40.8,37.5,30.35,WNW,285,7.0,7.0,88,0.00,,,0.05,Wunderground v.1.15,2013-04-26 08:32:00,
2013-04-26 04:37:00,40.7,37.4,30.35,WNW,297,6.0,8.0,88,0.00,,,0.05,Wunderground v.1.15,2013-04-26 08:37:00,
2013-04-26 04:43:00,40.5,37.5,30.35,WNW,286,5.0,6.0,89,0.00,,,0.05,Wunderground v.1.15,2013-04-26 08:43:00,
2013-04-26 04:48:00,40.3,37.3,30.36,West,274,3.0,6.0,89,0.00,,,0.05,Wunderground v.1.15,2013-04-26 08:48:00,
2013-04-26 04:54:00,40.1,37.1,30.36,WSW,249,1.0,2.0,89,0.00,,,0.05,Wunderground v.1.15,2013-04-26 08:54:00,
2013-04-26 05:00:00,39.7,37.0,30.36,WSW,238,0.0,0.0,90,0.00,,,0.05,Wunderground v.1.15,2013-04-26 09:00:00,
2013-04-26 05:06:00,39.2,36.5,30.36,WSW,238,0.0,0.0,90,0.00,,,0.05,Wunderground v.1.15,2013-04-26 09:06:00,
2013-04-26 05:12:00,39.1,36.7,30.37,West,264,0.0,1.0,91,0.00,,,0.05,Wunderground v.1.15,2013-04-26 09:12:00,
2013-04-26 05:18:00,39.0,36.6,30.37,West,275,0.0,1.0,91,0.00,,,0.05,Wunderground v.1.15,2013-04-26 09:18:00,
2013-04-26 05:23:00,38.9,36.8,30.37,WSW,256,0.0,0.0,92,0.00,,,0.05,Wunderground v.1.15,2013-04-26 09:23:00,
2013-04-26 05:29:00,38.7,36.3,30.37,West,264,0.0,0.0,91,0.00,,,0.05,Wunderground v.1.15,2013-04-26 09:29:00,
2013-04-26 05:35:00,38.7,36.6,30.37,West,266,1.0,2.0,92,0.00,,,0.05,Wunderground v.1.15,2013-04-26 09:35:00,
2013-04-26 05:40:00,38.4,36.3,30.38,West,264,1.0,1.0,92,0.00,,,0.05,Wunderground v.1.15,2013-04-26 09:40:00,
2013-04-26 05:46:00,38.2,36.1,30.38,SSW,212,0.0,1.0,92,0.00,,,0.05,Wunderground v.1.15,2013-04-26 09:46:00,
2013-04-26 05:51:00,38.1,36.3,30.38,SW,226,0.0,1.0,93,0.00,,,0.05,Wunderground v.1.15,2013-04-26 09:51:00,
2013-04-26 05:57:00,38.2,36.4,30.38,WSW,256,0.0,1.0,93,0.00,,,0.05,Wunderground v.1.15,2013-04-26 09:57:00,
2013-04-26 06:02:00,38.2,36.4,30.38,West,273,0.0,0.0,93,0.00,,,0.05,Wunderground v.1.15,2013-04-26 10:02:00,
2013-04-26 06:08:00,38.2,36.4,30.39,West,260,0.0,0.0,93,0.00,,,0.05,Wunderground v.1.15,2013-04-26 10:08:00,
2013-04-26 06:13:00,38.1,36.3,30.39,SW,222,0.0,0.0,93,0.00,,,0.05,Wunderground v.1.15,2013-04-26 10:13:00,
2013-04-26 06:19:00,38.2,36.6,30.39,WSW,253,0.0,1.0,94,0.00,,,0.05,Wunderground v.1.15,2013-04-26 10:19:00,
2013-04-26 06:24:00,38.4,36.8,30.39,SE,126,0.0,0.0,94,0.00,,,0.05,Wunderground v.1.15,2013-04-26 10:24:00,
2013-04-26 06:30:00,38.7,37.1,30.40,West,259,0.0,4.0,94,0.00,,,0.05,Wunderground v.1.15,2013-04-26 10:30:00,
2013-04-26 06:35:00,39.1,37.5,30.40,WNW,287,1.0,4.0,94,0.00,,,0.05,Wunderground v.1.15,2013-04-26 10:35:00,
2013-04-26 06:41:00,39.3,37.4,30.40,West,262,1.0,1.0,93,0.00,,,0.05,Wunderground v.1.15,2013-04-26 10:41:00,
2013-04-26 06:47:00,39.4,37.5,30.40,SW,227,1.0,3.0,93,0.00,,,0.05,Wunderground v.1.15,2013-04-26 10:47:00,
2013-04-26 06:53:00,39.5,37.4,30.41,WSW,250,1.0,1.0,92,0.00,,,0.05,Wunderground v.1.15,2013-04-26 10:53:00,
2013-04-26 06:58:00,39.5,37.4,30.41,West,281,1.0,2.0,92,0.00,,,0.05,Wunderground v.1.15,2013-04-26 10:58:00,
2013-04-26 07:03:00,39.6,37.5,30.41,West,277,1.0,3.0,92,0.00,,,0.05,Wunderground v.1.15,2013-04-26 11:03:00,
2013-04-26 07:09:00,39.7,37.6,30.41,SE,129,1.0,3.0,92,0.00,,,0.05,Wunderground v.1.15,2013-04-26 11:09:00,
2013-04-26 07:15:00,39.9,37.5,30.41,SSW,201,0.0,1.0,91,0.00,,,0.05,Wunderground v.1.15,2013-04-26 11:15:00,
2013-04-26 07:20:00,39.9,37.5,30.42,SW,232,1.0,1.0,91,0.00,,,0.05,Wunderground v.1.15,2013-04-26 11:20:00,
2013-04-26 07:26:00,40.0,37.6,30.42,WNW,288,1.0,2.0,91,0.00,,,0.05,Wunderground v.1.15,2013-04-26 11:26:00,
2013-04-26 07:31:00,40.1,37.7,30.42,WSW,248,0.0,2.0,91,0.00,,,0.05,Wunderground v.1.15,2013-04-26 11:31:00,
2013-04-26 07:37:00,40.3,37.9,30.42,West,280,1.0,3.0,91,0.00,,,0.05,Wunderground v.1.15,2013-04-26 11:37:00,
2013-04-26 07:42:00,40.5,38.1,30.42,West,273,1.0,2.0,91,0.00,,,0.05,Wunderground v.1.15,2013-04-26 11:42:00,
2013-04-26 07:48:00,40.7,38.3,30.42,West,267,1.0,2.0,91,0.00,,,0.05,Wunderground v.1.15,2013-04-26 11:48:00,
2013-04-26 07:53:00,40.8,38.1,30.43,WNW,298,2.0,4.0,90,0.00,,,0.05,Wunderground v.1.15,2013-04-26 11:53:00,
2013-04-26 07:59:00,40.8,37.8,30.43,West,266,4.0,6.0,89,0.00,,,0.05,Wunderground v.1.15,2013-04-26 11:59:00,
2013-04-26 08:04:00,41.0,38.0,30.43,WNW,295,5.0,9.0,89,0.00,,,0.05,Wunderground v.1.15,2013-04-26 12:04:00,
2013-04-26 08:10:00,41.3,38.3,30.43,WNW,293,5.0,5.0,89,0.00,,,0.05,Wunderground v.1.15,2013-04-26 12:10:00,
2013-04-26 08:16:00,41.5,38.2,30.43,NW,305,6.0,8.0,88,0.00,,,0.05,Wunderground v.1.15,2013-04-26 12:16:00,
2013-04-26 08:22:00,41.7,38.4,30.43,WSW,253,5.0,5.0,88,0.00,,,0.05,Wunderground v.1.15,2013-04-26 12:22:00,
2013-04-26 08:28:00,41.8,38.2,30.43,WNW,296,4.0,7.0,87,0.00,,,0.05,Wunderground v.1.15,2013-04-26 12:28:00,
2013-04-26 08:34:00,42.2,38.6,30.43,WNW,295,4.0,6.0,87,0.00,,,0.05,Wunderground v.1.15,2013-04-26 12:34:00,
2013-04-26 08:40:00,42.3,38.1,30.43,WNW,297,4.0,4.0,85,0.00,,,0.05,Wunderground v.1.15,2013-04-26 12:40:00,
2013-04-26 08:45:00,42.6,38.7,30.43,WNW,289,3.0,8.0,86,0.00,,,0.05,Wunderground v.1.15,2013-04-26 12:45:00,
2013-04-26 08:50:00,42.8,38.3,30.43,WNW,284,4.0,4.0,84,0.00,,,0.05,Wunderground v.1.15,2013-04-26 12:50:00,
2013-04-26 08:56:00,42.6,36.9,30.43,WNW,288,5.0,11.0,80,0.00,,,0.05,Wunderground v.1.15,2013-04-26 12:56:00,
2013-04-26 09:01:00,42.9,37.5,30.43,WNW,284,6.0,6.0,81,0.00,,,0.05,Wunderground v.1.15,2013-04-26 13:01:00,
2013-04-26 09:06:00,43.2,37.1,30.43,WNW,296,5.0,8.0,79,0.00,,,0.05,Wunderground v.1.15,2013-04-26 13:06:00,
2013-04-26 09:12:00,43.2,37.1,30.43,WNW,300,5.0,5.0,79,0.00,,,0.05,Wunderground v.1.15,2013-04-26 13:12:00,
2013-04-26 09:18:00,44.1,37.3,30.44,ENE,68,3.0,5.0,77,0.00,,,0.05,Wunderground v.1.15,2013-04-26 13:18:00,
2013-04-26 09:24:00,44.5,37.4,30.44,WNW,291,4.0,13.0,76,0.00,,,0.05,Wunderground v.1.15,2013-04-26 13:24:00,
2013-04-26 09:29:00,43.8,35.4,30.44,WNW,298,7.0,13.0,72,0.00,,,0.05,Wunderground v.1.15,2013-04-26 13:29:00,
2013-04-26 09:35:00,44.2,35.4,30.44,NW,325,5.0,7.0,71,0.00,,,0.05,Wunderground v.1.15,2013-04-26 13:35:00,
2013-04-26 09:40:00,44.8,35.6,30.44,WNW,294,3.0,3.0,70,0.00,,,0.05,Wunderground v.1.15,2013-04-26 13:40:00,
2013-04-26 09:46:00,45.4,35.8,30.44,NW,316,2.0,5.0,69,0.00,,,0.05,Wunderground v.1.15,2013-04-26 13:46:00,
2013-04-26 09:51:00,45.5,36.3,30.44,SW,235,2.0,4.0,70,0.00,,,0.05,Wunderground v.1.15,2013-04-26 13:51:00,
2013-04-26 09:57:00,45.0,33.9,30.44,WNW,282,4.0,10.0,65,0.00,,,0.05,Wunderground v.1.15,2013-04-26 13:57:00,
2013-04-26 10:02:00,44.7,32.5,30.44,WNW,297,6.0,6.0,62,0.00,,,0.05,Wunderground v.1.15,2013-04-26 14:02:00,
2013-04-26 10:07:00,44.5,33.1,30.44,WSW,246,6.0,8.0,64,0.00,,,0.05,Wunderground v.1.15,2013-04-26 14:07:00,
2013-04-26 10:13:00,44.8,34.1,30.45,WNW,283,4.0,6.0,66,0.00,,,0.05,Wunderground v.1.15,2013-04-26 14:13:00,
2013-04-26 10:18:00,44.8,34.1,30.45,WNW,285,5.0,10.0,66,0.00,,,0.05,Wunderground v.1.15,2013-04-26 14:18:00,
2013-04-26 10:24:00,44.7,34.4,30.45,WNW,288,7.0,9.0,67,0.00,,,0.05,Wunderground v.1.15,2013-04-26 14:24:00,
2013-04-26 10:29:00,44.6,33.6,30.45,ENE,63,6.0,9.0,65,0.00,,,0.05,Wunderground v.1.15,2013-04-26 14:29:00,
2013-04-26 10:35:00,44.8,34.1,30.45,NW,304,5.0,11.0,66,0.00,,,0.05,Wunderground v.1.15,2013-04-26 14:35:00,
2013-04-26 10:41:00,45.2,33.3,30.45,WNW,298,4.0,4.0,63,0.00,,,0.05,Wunderground v.1.15,2013-04-26 14:41:00,
2013-04-26 10:46:00,45.7,33.8,30.45,NE,43,2.0,4.0,63,0.00,,,0.05,Wunderground v.1.15,2013-04-26 14:46:00,
2013-04-26 10:52:00,46.1,33.0,30.45,WNW,289,2.0,2.0,60,0.00,,,0.05,Wunderground v.1.15,2013-04-26 14:52:00,
2013-04-26 10:57:00,46.2,32.7,30.45,WNW,296,3.0,5.0,59,0.00,,,0.05,Wunderground v.1.15,2013-04-26 14:57:00,
2013-04-26 11:03:00,46.0,32.0,30.46,West,278,4.0,8.0,58,0.00,,,0.05,Wunderground v.1.15,2013-04-26 15:03:00,
2013-04-26 11:09:00,46.3,33.6,30.46,WNW,302,4.0,8.0,61,0.00,,,0.05,Wunderground v.1.15,2013-04-26 15:09:00,
2013-04-26 11:15:00,46.6,34.3,30.46,WNW,294,3.0,4.0,62,0.00,,,0.05,Wunderground v.1.15,2013-04-26 15:15:00,
2013-04-26 11:20:00,46.4,33.7,30.46,NNW,344,2.0,3.0,61,0.00,,,0.05,Wunderground v.1.15,2013-04-26 15:20:00,
2013-04-26 11:26:00,46.8,34.5,30.46,ENE,58,3.0,6.0,62,0.00,,,0.05,Wunderground v.1.15,2013-04-26 15:26:00,
2013-04-26 11:31:00,46.9,32.9,30.46,WNW,302,3.0,4.0,58,0.00,,,0.05,Wunderground v.1.15,2013-04-26 15:31:00,
2013-04-26 11:37:00,47.0,33.0,30.46,West,269,1.0,4.0,58,0.00,,,0.05,Wunderground v.1.15,2013-04-26 15:37:00,
2013-04-26 11:42:00,47.1,33.1,30.46,NW,311,1.0,2.0,58,0.00,,,0.05,Wunderground v.1.15,2013-04-26 15:42:00,
2013-04-26 11:48:00,47.5,33.9,30.46,NNW,330,2.0,3.0,59,0.00,,,0.05,Wunderground v.1.15,2013-04-26 15:48:00,
2013-04-26 11:54:00,47.8,32.9,30.46,WNW,297,2.0,8.0,56,0.00,,,0.05,Wunderground v.1.15,2013-04-26 15:54:00,
2013-04-26 11:59:00,47.5,33.0,30.46,WSW,252,3.0,8.0,57,0.00,,,0.05,Wunderground v.1.15,2013-04-26 15:59:00,
2013-04-26 12:05:00,47.9,32.5,30.46,West,279,3.0,4.0,55,0.00,,,0.05,Wunderground v.1.15,2013-04-26 16:05:00,
2013-04-26 12:10:00,48.5,32.6,30.46,WNW,302,2.0,12.0,54,0.00,,,0.05,Wunderground v.1.15,2013-04-26 16:10:00,
2013-04-26 12:16:00,47.8,32.4,30.46,WNW,287,4.0,12.0,55,0.00,,,0.05,Wunderground v.1.15,2013-04-26 16:16:00,
2013-04-26 12:21:00,47.6,32.2,30.46,WNW,290,3.0,4.0,55,0.00,,,0.05,Wunderground v.1.15,2013-04-26 16:21:00,
2013-04-26 12:27:00,48.1,32.7,30.45,North,349,2.0,4.0,55,0.00,,,0.05,Wunderground v.1.15,2013-04-26 16:27:00,
2013-04-26 12:32:00,48.5,33.1,30.45,WNW,291,2.0,5.0,55,0.00,,,0.05,Wunderground v.1.15,2013-04-26 16:32:00,
2013-04-26 12:38:00,48.6,33.1,30.45,WNW,294,3.0,8.0,55,0.00,,,0.05,Wunderground v.1.15,2013-04-26 16:38:00,
2013-04-26 12:44:00,47.9,31.6,30.45,WNW,291,5.0,10.0,53,0.00,,,0.05,Wunderground v.1.15,2013-04-26 16:44:00,
2013-04-26 12:50:00,48.1,33.1,30.45,West,281,4.0,4.0,56,0.00,,,0.05,Wunderground v.1.15,2013-04-26 16:50:00,
2013-04-26 12:55:00,47.8,31.9,30.45,WNW,285,4.0,8.0,54,0.00,,,0.05,Wunderground v.1.15,2013-04-26 16:55:00,
2013-04-26 13:00:00,48.1,34.4,30.45,NE,53,5.0,5.0,59,0.00,,,0.05,Wunderground v.1.15,2013-04-26 17:00:00,
2013-04-26 13:06:00,48.3,32.9,30.45,NNW,346,6.0,13.0,55,0.00,,,0.05,Wunderground v.1.15,2013-04-26 17:06:00,
2013-04-26 13:12:00,48.9,33.4,30.44,NNE,33,5.0,6.0,55,0.00,,,0.05,Wunderground v.1.15,2013-04-26 17:12:00,
2013-04-26 13:17:00,49.0,32.1,30.44,NW,304,3.0,6.0,52,0.00,,,0.05,Wunderground v.1.15,2013-04-26 17:17:00,
2013-04-26 13:23:00,48.9,32.5,30.44,West,263,4.0,6.0,53,0.00,,,0.05,Wunderground v.1.15,2013-04-26 17:23:00,
2013-04-26 13:28:00,48.7,32.3,30.45,NW,307,5.0,6.0,53,0.00,,,0.05,Wunderground v.1.15,2013-04-26 17:28:00,
2013-04-26 13:34:00,49.1,33.2,30.45,NW,311,3.0,4.0,54,0.00,,,0.05,Wunderground v.1.15,2013-04-26 17:34:00,
2013-04-26 13:39:00,49.3,32.4,30.45,WNW,291,2.0,8.0,52,0.00,,,0.05,Wunderground v.1.15,2013-04-26 17:39:00,
2013-04-26 13:45:00,48.9,32.0,30.45,West,263,4.0,11.0,52,0.00,,,0.05,Wunderground v.1.15,2013-04-26 17:45:00,
2013-04-26 13:50:00,48.9,32.5,30.45,WNW,293,6.0,6.0,53,0.00,,,0.05,Wunderground v.1.15,2013-04-26 17:50:00,
2013-04-26 13:56:00,49.5,33.1,30.45,WNW,289,4.0,7.0,53,0.00,,,0.05,Wunderground v.1.15,2013-04-26 17:56:00,
2013-04-26 14:01:00,49.3,31.9,30.44,WNW,283,4.0,7.0,51,0.00,,,0.05,Wunderground v.1.15,2013-04-26 18:01:00,
2013-04-26 14:06:00,49.1,32.2,30.44,WSW,240,6.0,9.0,52,0.00,,,0.05,Wunderground v.1.15,2013-04-26 18:06:00,
2013-04-26 14:12:00,50.3,34.3,30.44,WNW,290,4.0,6.0,54,0.00,,,0.05,Wunderground v.1.15,2013-04-26 18:12:00,
2013-04-26 14:18:00,50.4,31.9,30.44,West,281,5.0,8.0,49,0.00,,,0.05,Wunderground v.1.15,2013-04-26 18:18:00,
2013-04-26 14:23:00,50.3,34.3,30.44,WNW,300,5.0,5.0,54,0.00,,,0.05,Wunderground v.1.15,2013-04-26 18:23:00,
2013-04-26 14:29:00,51.2,32.7,30.44,North,4,4.0,6.0,49,0.00,,,0.05,Wunderground v.1.15,2013-04-26 18:29:00,
2013-04-26 14:34:00,51.1,31.6,30.44,WNW,293,2.0,4.0,47,0.00,,,0.05,Wunderground v.1.15,2013-04-26 18:34:00,
2013-04-26 14:40:00,51.0,32.5,30.44,WNW,291,2.0,4.0,49,0.00,,,0.05,Wunderground v.1.15,2013-04-26 18:40:00,
2013-04-26 14:45:00,50.4,31.4,30.44,WNW,288,4.0,14.0,48,0.00,,,0.05,Wunderground v.1.15,2013-04-26 18:45:00,
2013-04-26 14:51:00,50.4,31.9,30.44,WSW,238,4.0,4.0,49,0.00,,,0.05,Wunderground v.1.15,2013-04-26 18:51:00,
2013-04-26 14:57:00,51.3,31.2,30.44,NE,54,2.0,4.0,46,0.00,,,0.05,Wunderground v.1.15,2013-04-26 18:57:00,
2013-04-26 15:03:00,51.8,32.7,30.44,WNW,297,1.0,3.0,48,0.00,,,0.05,Wunderground v.1.15,2013-04-26 19:03:00,
2013-04-26 15:08:00,51.5,31.9,30.44,NW,304,2.0,5.0,47,0.00,,,0.05,Wunderground v.1.15,2013-04-26 19:08:00,
2013-04-26 15:13:00,51.8,33.2,30.44,North,353,3.0,6.0,49,0.00,,,0.05,Wunderground v.1.15,2013-04-26 19:13:00,
2013-04-26 15:18:00,52.5,32.8,30.44,East,98,4.0,10.0,47,0.00,,,0.05,Wunderground v.1.15,2013-04-26 19:18:00,
2013-04-26 15:24:00,52.5,31.8,30.44,SW,235,5.0,8.0,45,0.00,,,0.05,Wunderground v.1.15,2013-04-26 19:24:00,
2013-04-26 15:29:00,53.0,32.8,30.44,WNW,288,4.0,8.0,46,0.00,,,0.05,Wunderground v.1.15,2013-04-26 19:29:00,
2013-04-26 15:35:00,54.3,33.9,30.43,ENE,67,2.0,3.0,46,0.00,,,0.05,Wunderground v.1.15,2013-04-26 19:35:00,
2013-04-26 15:41:00,54.4,34.6,30.43,NE,36,2.0,5.0,47,0.00,,,0.05,Wunderground v.1.15,2013-04-26 19:41:00,
2013-04-26 15:47:00,54.4,31.8,30.43,NNE,18,2.0,5.0,42,0.00,,,0.05,Wunderground v.1.15,2013-04-26 19:47:00,
2013-04-26 15:53:00,55.0,32.3,30.43,ESE,113,3.0,9.0,42,0.00,,,0.05,Wunderground v.1.15,2013-04-26 19:53:00,
2013-04-26 15:58:00,53.7,30.5,30.43,WNW,295,3.0,10.0,41,0.00,,,0.05,Wunderground v.1.15,2013-04-26 19:58:00,
2013-04-26 16:03:00,53.3,31.4,30.43,NW,322,5.0,8.0,43,0.00,,,0.05,Wunderground v.1.15,2013-04-26 20:03:00,
2013-04-26 16:09:00,53.9,33.6,30.43,ENE,72,4.0,10.0,46,0.00,,,0.05,Wunderground v.1.15,2013-04-26 20:09:00,
2013-04-26 16:14:00,54.1,32.1,30.43,NE,40,3.0,4.0,43,0.00,,,0.05,Wunderground v.1.15,2013-04-26 20:14:00,
2013-04-26 16:20:00,53.2,31.3,30.43,WNW,283,3.0,3.0,43,0.00,,,0.05,Wunderground v.1.15,2013-04-26 20:20:00,
2013-04-26 16:25:00,54.2,33.3,30.43,WNW,284,3.0,6.0,45,0.00,,,0.05,Wunderground v.1.15,2013-04-26 20:25:00,
2013-04-26 16:31:00,53.8,31.8,30.43,West,280,5.0,9.0,43,0.00,,,0.05,Wunderground v.1.15,2013-04-26 20:31:00,
2013-04-26 16:36:00,53.5,32.7,30.43,WSW,245,7.0,9.0,45,0.00,,,0.05,Wunderground v.1.15,2013-04-26 20:36:00,
2013-04-26 16:42:00,53.5,34.3,30.43,SW,215,5.0,6.0,48,0.00,,,0.05,Wunderground v.1.15,2013-04-26 20:42:00,
2013-04-26 16:48:00,53.3,33.0,30.43,West,281,6.0,13.0,46,0.00,,,0.05,Wunderground v.1.15,2013-04-26 20:48:00,
2013-04-26 16:53:00,53.6,32.8,30.43,WNW,293,7.0,8.0,45,0.00,,,0.05,Wunderground v.1.15,2013-04-26 20:53:00,
2013-04-26 16:59:00,53.4,33.1,30.43,West,281,7.0,12.0,46,0.00,,,0.05,Wunderground v.1.15,2013-04-26 20:59:00,
2013-04-26 17:04:00,53.0,32.8,30.42,WNW,285,8.0,12.0,46,0.00,,,0.05,Wunderground v.1.15,2013-04-26 21:04:00,
2013-04-26 17:09:00,53.4,34.7,30.42,NW,304,7.0,12.0,49,0.00,,,0.05,Wunderground v.1.15,2013-04-26 21:09:00,
2013-04-26 17:15:00,54.0,34.2,30.43,NE,37,4.0,9.0,47,0.00,,,0.05,Wunderground v.1.15,2013-04-26 21:15:00,
2013-04-26 17:21:00,54.0,34.7,30.43,WNW,293,3.0,9.0,48,0.00,,,0.05,Wunderground v.1.15,2013-04-26 21:21:00,
2013-04-26 17:26:00,53.8,34.0,30.43,WNW,285,4.0,9.0,47,0.00,,,0.05,Wunderground v.1.15,2013-04-26 21:26:00,
2013-04-26 17:32:00,53.9,34.6,30.43,NE,36,4.0,4.0,48,0.00,,,0.05,Wunderground v.1.15,2013-04-26 21:32:00,
2013-04-26 17:38:00,54.0,33.1,30.43,NW,305,3.0,6.0,45,0.00,,,0.05,Wunderground v.1.15,2013-04-26 21:38:00,
2013-04-26 17:44:00,53.6,33.3,30.43,NE,51,4.0,8.0,46,0.00,,,0.05,Wunderground v.1.15,2013-04-26 21:44:00,
2013-04-26 17:50:00,53.7,33.9,30.43,NNE,18,3.0,3.0,47,0.00,,,0.05,Wunderground v.1.15,2013-04-26 21:50:00,
2013-04-26 17:55:00,53.8,34.0,30.42,ENE,57,2.0,3.0,47,0.00,,,0.05,Wunderground v.1.15,2013-04-26 21:55:00,
2013-04-26 18:00:00,53.9,34.1,30.42,WNW,290,3.0,3.0,47,0.00,,,0.05,Wunderground v.1.15,2013-04-26 22:00:00,
2013-04-26 18:06:00,53.0,34.3,30.43,WNW,295,4.0,7.0,49,0.00,,,0.05,Wunderground v.1.15,2013-04-26 22:06:00,
2013-04-26 18:12:00,52.5,32.3,30.42,WNW,302,6.0,8.0,46,0.00,,,0.05,Wunderground v.1.15,2013-04-26 22:12:00,
2013-04-26 18:18:00,52.1,34.0,30.43,NW,304,6.0,10.0,50,0.00,,,0.05,Wunderground v.1.15,2013-04-26 22:18:00,
2013-04-26 18:24:00,51.5,33.5,30.43,NE,40,7.0,12.0,50,0.00,,,0.05,Wunderground v.1.15,2013-04-26 22:24:00,
2013-04-26 18:29:00,51.9,33.3,30.42,ENE,64,6.0,12.0,49,0.00,,,0.05,Wunderground v.1.15,2013-04-26 22:29:00,
2013-04-26 18:35:00,52.0,32.4,30.43,NNW,328,4.0,10.0,47,0.00,,,0.05,Wunderground v.1.15,2013-04-26 22:35:00,
2013-04-26 18:40:00,51.8,32.2,30.43,WNW,284,5.0,11.0,47,0.00,,,0.05,Wunderground v.1.15,2013-04-26 22:40:00,
2013-04-26 18:45:00,51.3,32.8,30.43,WNW,283,5.0,11.0,49,0.00,,,0.05,Wunderground v.1.15,2013-04-26 22:45:00,
2013-04-26 18:51:00,50.9,31.9,30.43,WNW,291,5.0,6.0,48,0.00,,,0.05,Wunderground v.1.15,2013-04-26 22:51:00,
2013-04-26 18:57:00,51.4,32.3,30.43,WNW,293,4.0,6.0,48,0.00,,,0.05,Wunderground v.1.15,2013-04-26 22:57:00,
2013-04-26 19:02:00,51.1,31.0,30.43,WNW,284,4.0,7.0,46,0.00,,,0.05,Wunderground v.1.15,2013-04-26 23:02:00,
2013-04-26 19:08:00,50.6,31.6,30.43,WNW,295,4.0,7.0,48,0.00,,,0.05,Wunderground v.1.15,2013-04-26 23:08:00,
2013-04-26 19:13:00,50.0,30.5,30.43,NW,307,5.0,8.0,47,0.00,,,0.05,Wunderground v.1.15,2013-04-26 23:13:00,
2013-04-26 19:19:00,49.6,31.2,30.43,WNW,290,5.0,8.0,49,0.00,,,0.05,Wunderground v.1.15,2013-04-26 23:19:00,
2013-04-26 19:24:00,49.3,30.4,30.43,WNW,302,5.0,7.0,48,0.00,,,0.05,Wunderground v.1.15,2013-04-26 23:24:00,
2013-04-26 19:30:00,49.1,30.2,30.43,WNW,302,4.0,5.0,48,0.00,,,0.05,Wunderground v.1.15,2013-04-26 23:30:00,
2013-04-26 19:35:00,48.9,30.6,30.43,NW,309,3.0,5.0,49,0.00,,,0.05,Wunderground v.1.15,2013-04-26 23:35:00,
2013-04-26 19:41:00,48.7,30.4,30.43,WNW,287,2.0,3.0,49,0.00,,,0.05,Wunderground v.1.15,2013-04-26 23:41:00,
2013-04-26 19:46:00,48.0,30.7,30.43,NW,309,2.0,5.0,51,0.00,,,0.05,Wunderground v.1.15,2013-04-26 23:46:00,
2013-04-26 19:52:00,47.6,30.3,30.43,WNW,298,3.0,4.0,51,0.00,,,0.05,Wunderground v.1.15,2013-04-26 23:52:00,
2013-04-26 20:06:00,47.0,30.3,30.43,WNW,284,2.0,3.0,52,0.00,,,0.05,Wunderground v.1.15,2013-04-27 00:06:00,
2013-04-26 20:11:00,46.8,30.1,30.43,West,259,1.0,1.0,52,0.00,,,0.05,Wunderground v.1.15,2013-04-27 00:11:00,
2013-04-26 20:17:00,46.6,29.9,30.43,West,264,1.0,1.0,52,0.00,,,0.05,Wunderground v.1.15,2013-04-27 00:17:00,
2013-04-26 20:22:00,46.3,29.6,30.43,West,264,1.0,1.0,52,0.00,,,0.05,Wunderground v.1.15,2013-04-27 00:22:00,
2013-04-26 20:28:00,46.1,29.9,30.43,West,262,0.0,1.0,53,0.00,,,0.05,Wunderground v.1.15,2013-04-27 00:28:00,
2013-04-26 20:34:00,45.8,30.1,30.43,West,266,0.0,1.0,54,0.00,,,0.05,Wunderground v.1.15,2013-04-27 00:34:00,
2013-04-26 20:40:00,45.3,30.1,30.44,West,266,0.0,1.0,55,0.00,,,0.05,Wunderground v.1.15,2013-04-27 00:40:00,
2013-04-26 20:46:00,45.0,30.2,30.44,West,266,0.0,1.0,56,0.00,,,0.05,Wunderground v.1.15,2013-04-27 00:46:00,
2013-04-26 20:51:00,44.8,30.0,30.44,West,266,0.0,1.0,56,0.00,,,0.05,Wunderground v.1.15,2013-04-27 00:51:00,
2013-04-26 20:57:00,44.7,30.0,30.44,West,267,0.0,1.0,56,0.00,,,0.05,Wunderground v.1.15,2013-04-27 00:57:00,
2013-04-26 21:02:00,44.4,30.1,30.44,West,267,0.0,0.0,57,0.00,,,0.05,Wunderground v.1.15,2013-04-27 01:02:00,
2013-04-26 21:07:00,44.0,30.2,30.44,WNW,284,0.0,1.0,58,0.00,,,0.05,Wunderground v.1.15,2013-04-27 01:07:00,
2013-04-26 21:13:00,43.8,30.0,30.44,West,270,1.0,1.0,58,0.00,,,0.05,Wunderground v.1.15,2013-04-27 01:13:00,
2013-04-26 21:19:00,44.0,30.2,30.44,West,274,1.0,2.0,58,0.00,,,0.05,Wunderground v.1.15,2013-04-27 01:19:00,
2013-04-26 21:25:00,43.7,29.9,30.44,WNW,283,1.0,1.0,58,0.00,,,0.05,Wunderground v.1.15,2013-04-27 01:25:00,
2013-04-26 21:30:00,43.7,29.9,30.44,WNW,283,1.0,1.0,58,0.00,,,0.05,Wunderground v.1.15,2013-04-27 01:30:00,
2013-04-26 21:36:00,43.7,29.9,30.44,West,260,0.0,1.0,58,0.00,,,0.05,Wunderground v.1.15,2013-04-27 01:36:00,
2013-04-26 21:41:00,43.2,30.2,30.44,West,260,0.0,0.0,60,0.00,,,0.05,Wunderground v.1.15,2013-04-27 01:41:00,
2013-04-26 21:47:00,42.6,30.1,30.44,WSW,238,0.0,0.0,61,0.00,,,0.05,Wunderground v.1.15,2013-04-27 01:47:00,
2013-04-26 21:53:00,42.0,30.3,30.44,ESE,121,0.0,1.0,63,0.00,,,0.05,Wunderground v.1.15,2013-04-27 01:53:00,
2013-04-26 21:58:00,41.7,31.2,30.44,ESE,121,0.0,1.0,66,0.00,,,0.05,Wunderground v.1.15,2013-04-27 01:58:00,
2013-04-26 22:03:00,41.5,31.0,30.45,ESE,121,0.0,0.0,66,0.00,,,0.05,Wunderground v.1.15,2013-04-27 02:03:00,
2013-04-26 22:09:00,41.2,30.7,30.44,ESE,117,0.0,1.0,66,0.00,,,0.05,Wunderground v.1.15,2013-04-27 02:09:00,
2013-04-26 22:15:00,41.1,31.0,30.44,ESE,123,1.0,1.0,67,0.00,,,0.05,Wunderground v.1.15,2013-04-27 02:15:00,
2013-04-26 22:20:00,40.9,31.1,30.44,ESE,123,1.0,1.0,68,0.00,,,0.05,Wunderground v.1.15,2013-04-27 02:20:00,
2013-04-26 22:26:00,40.9,31.1,30.44,ESE,123,1.0,1.0,68,0.00,,,0.05,Wunderground v.1.15,2013-04-27 02:26:00,
2013-04-26 22:31:00,40.8,30.7,30.45,ESE,117,1.0,1.0,67,0.00,,,0.05,Wunderground v.1.15,2013-04-27 02:31:00,
2013-04-26 22:37:00,40.7,30.6,30.45,ESE,117,1.0,1.0,67,0.00,,,0.05,Wunderground v.1.15,2013-04-27 02:37:00,
2013-04-26 22:42:00,40.7,30.6,30.45,ESE,117,0.0,1.0,67,0.00,,,0.05,Wunderground v.1.15,2013-04-27 02:42:00,
2013-04-26 22:48:00,40.5,30.8,30.45,ESE,117,1.0,1.0,68,0.00,,,0.05,Wunderground v.1.15,2013-04-27 02:48:00,
2013-04-26 22:53:00,40.4,30.7,30.45,ESE,114,1.0,1.0,68,0.00,,,0.05,Wunderground v.1.15,2013-04-27 02:53:00,
2013-04-26 22:58:00,40.3,30.6,30.45,ESE,114,1.0,1.0,68,0.00,,,0.05,Wunderground v.1.15,2013-04-27 02:58:00,
2013-04-26 23:03:00,40.3,30.6,30.44,ESE,114,0.0,1.0,68,0.00,,,0.00,Wunderground v.1.15,2013-04-27 03:03:00,
2013-04-26 23:09:00,40.2,30.5,30.44,ESE,113,0.0,1.0,68,0.00,,,0.00,Wunderground v.1.15,2013-04-27 03:09:00,
2013-04-26 23:14:00,39.9,30.2,30.44,ESE,113,0.0,1.0,68,0.00,,,0.00,Wunderground v.1.15,2013-04-27 03:14:00,
2013-04-26 23:20:00,39.5,30.2,30.45,ESE,113,0.0,0.0,69,0.00,,,0.00,Wunderground v.1.15,2013-04-27 03:20:00,
2013-04-26 23:25:00,39.1,29.8,30.45,ESE,113,0.0,0.0,69,0.00,,,0.00,Wunderground v.1.15,2013-04-27 03:25:00,
2013-04-26 23:31:00,39.0,30.7,30.45,ESE,113,0.0,0.0,72,0.00,,,0.00,Wunderground v.1.15,2013-04-27 03:31:00,
2013-04-26 23:36:00,38.8,30.2,30.45,ESE,113,0.0,0.0,71,0.00,,,0.00,Wunderground v.1.15,2013-04-27 03:36:00,
2013-04-26 23:42:00,38.5,30.3,30.45,ESE,113,0.0,0.0,72,0.00,,,0.00,Wunderground v.1.15,2013-04-27 03:42:00,
2013-04-26 23:47:00,38.4,30.5,30.45,ESE,113,0.0,0.0,73,0.00,,,0.00,Wunderground v.1.15,2013-04-27 03:47:00,
2013-04-26 23:53:00,38.3,30.4,30.44,ESE,113,0.0,0.0,73,0.00,,,0.00,Wunderground v.1.15,2013-04-27 03:53:00,
2013-04-26 23:59:00,38.2,30.3,30.44,ESE,113,0.0,0.0,73,0.00,,,0.00,Wunderground v.1.15,2013-04-27 03:59:00,